Location: Poughquag
(41.6090°N, 73.6820°W)
Time: 10:51:09
(UTC-04:00)

A-11 Canister half - Pass Details

Date: 07 June 2020
Orbit: 1527 x 1682 km, 47.3° (Epoch: 06 July)

Event Time Altitude Azimuth Distance (km) Brightness Sun altitude
Rises 05:55:08 0° 230° (SW) 4,687 10.9 4.8°
Reaches altitude 10° 05:58:11 10° 228° (SW) 3,696 10.4 5.3°
Maximum altitude 06:07:24 72° 146° (SSE) 1,595 9.3 6.8°
Drops below altitude 10° 06:16:41 10° 65° (ENE) 3,718 15.0 8.4°
Sets 06:19:46 0° 64° (ENE) 4,716 14.0 9.0°
